McCook, NE

11:05 AM CDT on April 21, 2018 (GMT -0500)
McCook Municipal

Weather History for KMCK - April, 2013

Change the Weather History Date:

Friday, April 5, 2013

  Actual Average Record
Temperature  
Mean Temperature 59 °F 46 °F  
Max Temperature 80 °F 61 °F 89 °F (1930)
Min Temperature 38 °F 30 °F 19 °F (1920)
Degree Days  
Heating Degree Days 6    
Growing Degree Days 8 (Base 50)    
Moisture  
Dew Point 31 °F    
Average Humidity 40    
Maximum Humidity 76    
Minimum Humidity 17    
Precipitation  
Precipitation 0.00 in 0.06 in 1.02 in (1951)
Month to date precipitation 0.00 0.27  
Year to date precipitation 1.84 2.76  
Sea Level Pressure  
Sea Level Pressure 29.81 in    
Wind  
Wind Speed 11 mph (South)    
Max Wind Speed 28 mph    
Max Gust Speed 36 mph    
Visibility 10 miles    
Events      
T = Trace of Precipitation, MM = Missing Value Source: NWS Daily Summary

Daily Weather History Graph

Daily Weather History Graph

Search for Another Location

Airport or City:

Astronomy

Apr. 05, 2013 Rise Set
Actual Time 7:19 AM CDT 8:11 PM CDT
Civil Twilight 6:51 AM CDT 8:38 PM CDT
Nautical Twilight 6:19 AM CDT 9:11 PM CDT
Astronomical Twilight 5:45 AM CDT 9:45 PM CDT
Moon 4:28 AM CDT (4/5) 3:36 PM CDT (4/5)
Length of Visible Light 13h 47m
Length of Day
12h 51m
Waning Crescent, 23% of the Moon is Illuminated
Apr 5
Waning Crescent
Apr 10
New
Apr 18
First Quarter
Apr 25
Full
May 2
Last Quarter

Hourly Weather History & Observations

Time (CDT) Temp. Windchill Dew Point Humidity Pressure Visibility Wind Dir Wind Speed Gust Speed Precip Events Conditions
12:53 AM 45.0 °F 41.2 °F 32.0 °F 60% 30.08 in 10.0 mi South 6.9 mph - N/A   Clear
1:53 AM 44.1 °F 40.1 °F 33.1 °F 65% 30.06 in 10.0 mi South 6.9 mph - N/A   Clear
2:53 AM 43.0 °F 37.7 °F 33.1 °F 68% 30.03 in 10.0 mi South 9.2 mph - N/A   Clear
3:53 AM 42.1 °F 36.6 °F 33.1 °F 70% 30.01 in 10.0 mi South 9.2 mph - N/A   Clear
4:53 AM 41.0 °F 35.8 °F 32.0 °F 70% 29.99 in 10.0 mi South 8.1 mph - N/A   Clear
5:53 AM 39.9 °F 37.8 °F 32.0 °F 73% 29.98 in 10.0 mi Variable 3.5 mph - N/A   Clear
6:53 AM 39.0 °F 34.0 °F 32.0 °F 76% 29.97 in 10.0 mi SSE 6.9 mph - N/A   Clear
7:53 AM 41.0 °F 38.0 °F 34.0 °F 76% 29.96 in 10.0 mi East 4.6 mph - N/A   Clear
8:53 AM 44.1 °F 42.5 °F 35.1 °F 71% 29.97 in 8.0 mi East 3.5 mph - N/A   Clear
9:53 AM 57.9 °F - 33.1 °F 39% 29.92 in 10.0 mi South 13.8 mph 19.6 mph N/A   Clear
10:53 AM 68.0 °F - 28.9 °F 23% 29.87 in 10.0 mi South 20.7 mph 28.8 mph N/A   Clear
11:34 AM 69.8 °F - 28.4 °F 21% 29.88 in 5.0 mi South 21.9 mph 35.7 mph N/A   Haze
11:53 AM 69.1 °F - 27.0 °F 21% 29.84 in 7.0 mi South 23.0 mph 31.1 mph N/A   Mostly Cloudy
12:45 PM 69.8 °F - 28.4 °F 21% 29.85 in 10.0 mi South 27.6 mph 33.4 mph N/A   Scattered Clouds
12:53 PM 71.1 °F - 28.9 °F 21% 29.81 in 10.0 mi South 25.3 mph 33.4 mph N/A   Partly Cloudy
1:53 PM 75.0 °F - 30.9 °F 20% 29.74 in 10.0 mi South 19.6 mph 26.5 mph N/A   Clear
2:53 PM 75.9 °F - 28.9 °F 18% 29.70 in 10.0 mi SW 15.0 mph 26.5 mph N/A   Clear
3:53 PM 78.1 °F - 28.9 °F 17% 29.65 in 10.0 mi SSW 20.7 mph 32.2 mph N/A   Clear
4:53 PM 75.0 °F - 30.0 °F 19% 29.64 in 10.0 mi South 18.4 mph 25.3 mph N/A   Clear
5:53 PM 75.9 °F - 28.9 °F 18% 29.63 in 10.0 mi South 11.5 mph - N/A   Clear
6:53 PM 75.9 °F - 28.0 °F 17% 29.62 in 10.0 mi South 9.2 mph - N/A   Clear
7:53 PM 70.0 °F - 28.9 °F 22% 29.60 in 10.0 mi South 4.6 mph - N/A   Clear
8:53 PM 66.9 °F - 28.9 °F 24% 29.59 in 10.0 mi Calm Calm - N/A   Clear
9:53 PM 62.1 °F - 35.1 °F 37% 29.59 in 10.0 mi SE 8.1 mph - N/A   Clear
10:53 PM 63.0 °F - 37.9 °F 40% 29.57 in 10.0 mi SSE 12.7 mph - N/A   Clear
11:53 PM 61.0 °F - 39.0 °F 44% 29.56 in 10.0 mi South 6.9 mph - N/A   Clear